Volver al catálogo

CAPELLA-20

ACADIA

ActivoCienciaSSO
NORAD 68485·PAYLOAD·🇺🇸 United States

Lanzado Mar 30, 2026 desde Vandenberg Space Force Base

Loading…

Próximos Pases (próximas 24 horas)

TLE

ActualizadoSource: Space-Track

Época: Sep 14, 2026, 14:20 UTC

1 68485U 26067BX  26257.59784441  .00004160  00000-0  42797-3 0  9999
2 68485  97.7667 214.4595 0002502  97.0052 263.1451 14.90846665 25050

Sigue CAPELLA-20 en tiempo real con AllMySat

Download on the App Store